QPF
0.08 0.08 0.08 0.08 0.08 0.07 0.05 0.04 0.03 0.01 0.01 0.00 0.00 0.00 0.00 0.00 0.00 0.00 0.00 0.00 0.00 0.00 0.00 0.01 0.01 0.01 0.01 0.01 0.01 0.01 0.01 0.01 0.01 0.00 0.00 0.00 0.00 0.00 0.00 0.00 0.00 0.00 0.00
0.08 0.08 0.09 0.08 0.07 0.06 0.06 0.04 0.03 0.02 0.01 0.00 0.00 0.00 0.00 0.00 0.00 0.00 0.00 0.00 0.00 0.00 0.00 0.00 0.01 0.01 0.01 0.01 0.01 0.01 0.00 0.00 0.00 0.00 0.00 0.00 0.00 0.00 0.00 0.00 0.00 0.00 0.00
0.10 0.10 0.11 0.10 0.07 0.06 0.06 0.05 0.06 0.05 0.03 0.02 0.01 0.00 0.00 0.00 0.00 0.00 0.00 0.00 0.00 0.00 0.00 0.00 0.00 0.00 0.01 0.01 0.01 0.00 0.00 0.00 0.00 0.00 0.00 0.00 0.00 0.00 0.00 0.00 0.00 0.00 0.00
0.12 0.13 0.12 0.11 0.09 0.08 0.07 0.05 0.04 0.05 0.04 0.03 0.02 0.01 0.00 0.00 0.00 0.00 0.00 0.00 0.00 0.00 0.00 0.00 0.00 0.00 0.01 0.01 0.01 0.01 0.01 0.00 0.00 0.00 0.00 0.00 0.00 0.00 0.00 0.00 0.00 0.00 0.00
0.12 0.13 0.11 0.11 0.11 0.10 0.08 0.06 0.04 0.03 0.03 0.02 0.01 0.01 0.00 0.00 0.00 0.00 0.00 0.00 0.00 0.00 0.00 0.00 0.00 0.00 0.00 0.01 0.02 0.02 0.01 0.01 0.00 0.00 0.00 0.00 0.00 0.00 0.00 0.00 0.00 0.00 0.00
0.11 0.14 0.13 0.12 0.13 0.13 0.11 0.09 0.06 0.04 0.03 0.02 0.02 0.01 0.01 0.00 0.00 0.00 0.00 0.00 0.00 0.00 0.00 0.00 0.00 0.00 0.00 0.00 0.01 0.02 0.01 0.01 0.00 0.00 0.00 0.00 0.00 0.00 0.00 0.00 0.01 0.00 0.01
0.10 0.11 0.14 0.15 0.15 0.13 0.11 0.10 0.11 0.09 0.05 0.03 0.02 0.02 0.01 0.00 0.00 0.00 0.00 0.00 0.00 0.00 0.00 0.00 0.00 0.00 0.00 0.00 0.01 0.01 0.01 0.01 0.01 0.00 0.00 0.00 0.00 0.00 0.00 0.01 0.01 0.01 0.01
0.13 0.12 0.13 0.14 0.15 0.16 0.15 0.13 0.12 0.12 0.10 0.07 0.05 0.04 0.03 0.01 0.01 0.00 0.00 0.00 0.00 0.00 0.00 0.00 0.00 0.00 0.00 0.00 0.01 0.01 0.01 0.01 0.01 0.01 0.00 0.00 0.00 0.00 0.01 0.01 0.01 0.01 0.01
0.13 0.12 0.14 0.16 0.16 0.16 0.15 0.14 0.14 0.13 0.11 0.08 0.06 0.06 0.05 0.02 0.01 0.01 0.00 0.00 0.00 0.00 0.00 0.00 0.00 0.00 0.01 0.01 0.01 0.01 0.00 0.00 0.00 0.01 0.01 0.01 0.01 0.01 0.01 0.01 0.01 0.01 0.01
0.12 0.13 0.12 0.15 0.18 0.18 0.15 0.13 0.12 0.13 0.13 0.12 0.08 0.06 0.05 0.03 0.02 0.01 0.01 0.00 0.00 0.00 0.00 0.01 0.01 0.01 0.01 0.01 0.01 0.01 0.00 0.00 0.00 0.01 0.01 0.01 0.01 0.01 0.01 0.01 0.01 0.01 0.01
0.14 0.15 0.15 0.15 0.16 0.17 0.18 0.18 0.17 0.14 0.13 0.12 0.11 0.08 0.06 0.05 0.04 0.04 0.03 0.02 0.01 0.01 0.01 0.01 0.01 0.01 0.01 0.01 0.01 0.01 0.01 0.01 0.00 0.01 0.01 0.01 0.01 0.01 0.01 0.01 0.01 0.01 0.00
0.15 0.17 0.17 0.17 0.16 0.16 0.16 0.17 0.18 0.17 0.16 0.15 0.13 0.12 0.09 0.07 0.06 0.05 0.05 0.04 0.03 0.02 0.01 0.02 0.01 0.01 0.01 0.01 0.01 0.01 0.01 0.01 0.01 0.01 0.01 0.02 0.02 0.01 0.01 0.01 0.01 0.01 0.00
0.11 0.13 0.16 0.17 0.16 0.14 0.14 0.16 0.19 0.19 0.17 0.15 0.14 0.13 0.10 0.08 0.07 0.07 0.07 0.06 0.04 0.03 0.03 0.02 0.02 0.02 0.02 0.02 0.02 0.02 0.02 0.01 0.01 0.01 0.01 0.02 0.02 0.01 0.01 0.01 0.01 0.01 0.01
0.08 0.08 0.10 0.11 0.12 0.11 0.12 0.13 0.14 0.16 0.17 0.16 0.14 0.13 0.12 0.11 0.10 0.09 0.08 0.08 0.08 0.06 0.03 0.02 0.01 0.02 0.02 0.02 0.02 0.02 0.02 0.02 0.01 0.01 0.01 0.01 0.01 0.01 0.01 0.00 0.01 0.00 0.00
0.08 0.07 0.06 0.07 0.08 0.10 0.10 0.11 0.13 0.14 0.15 0.16 0.15 0.14 0.12 0.12 0.12 0.11 0.09 0.08 0.09 0.08 0.05 0.02 0.02 0.01 0.01 0.02 0.02 0.02 0.02 0.02 0.02 0.02 0.01 0.01 0.01 0.01 0.00 0.00 0.00 0.00 0.00
0.07 0.07 0.06 0.06 0.06 0.07 0.09 0.11 0.12 0.12 0.13 0.14 0.16 0.17 0.16 0.14 0.13 0.13 0.12 0.11 0.10 0.09 0.06 0.03 0.02 0.02 0.02 0.03 0.03 0.03 0.02 0.03 0.03 0.02 0.02 0.01 0.01 0.01 0.00 0.00 0.00 0.00 0.00
0.08 0.08 0.08 0.08 0.07 0.08 0.08 0.09 0.10 0.11 0.11 0.11 0.13 0.15 0.17 0.17 0.17 0.17 0.16 0.14 0.13 0.11 0.10 0.05 0.02 0.02 0.03 0.04 0.04 0.04 0.04 0.03 0.03 0.03 0.03 0.02 0.02 0.01 0.01 0.00 0.00 0.00 0.00
0.09 0.10 0.10 0.10 0.10 0.09 0.09 0.09 0.10 0.11 0.12 0.12 0.11 0.12 0.13 0.15 0.18 0.19 0.20 0.19 0.17 0.15 0.13 0.10 0.06 0.05 0.05 0.05 0.05 0.06 0.05 0.05 0.04 0.04 0.04 0.03 0.03 0.02 0.01 0.01 0.00 0.00 0.00
0.06 0.07 0.09 0.10 0.11 0.13 0.13 0.12 0.11 0.10 0.10 0.11 0.11 0.13 0.12 0.13 0.14 0.16 0.18 0.20 0.19 0.18 0.17 0.14 0.10 0.07 0.06 0.06 0.08 0.09 0.08 0.08 0.06 0.06 0.05 0.04 0.03 0.02 0.02 0.01 0.01 0.00 0.00
0.06 0.07 0.08 0.10 0.11 0.14 0.17 0.18 0.16 0.14 0.13 0.12 0.12 0.13 0.13 0.14 0.14 0.15 0.16 0.17 0.19 0.20 0.20 0.19 0.16 0.12 0.10 0.09 0.10 0.12 0.11 0.10 0.09 0.08 0.08 0.07 0.05 0.04 0.03 0.02 0.01 0.01 0.00
0.08 0.09 0.09 0.11 0.13 0.14 0.16 0.17 0.19 0.18 0.17 0.15 0.15 0.15 0.14 0.14 0.14 0.14 0.15 0.15 0.17 0.19 0.19 0.19 0.17 0.15 0.13 0.11 0.11 0.10 0.10 0.10 0.10 0.09 0.08 0.07 0.06 0.05 0.04 0.03 0.02 0.01 0.00
0.07 0.07 0.07 0.08 0.09 0.10 0.11 0.11 0.12 0.14 0.16 0.16 0.16 0.15 0.14 0.15 0.15 0.15 0.14 0.14 0.15 0.17 0.18 0.17 0.15 0.13 0.10 0.08 0.08 0.10 0.11 0.12 0.11 0.08 0.07 0.07 0.06 0.05 0.04 0.03 0.03 0.02 0.01
0.03 0.04 0.04 0.05 0.06 0.06 0.07 0.07 0.08 0.10 0.12 0.14 0.16 0.18 0.18 0.17 0.17 0.17 0.17 0.17 0.16 0.16 0.16 0.15 0.15 0.13 0.10 0.09 0.11 0.13 0.12 0.11 0.08 0.07 0.07 0.08 0.07 0.05 0.04 0.03 0.03 0.02 0.01
0.02 0.02 0.02 0.03 0.04 0.04 0.04 0.04 0.05 0.06 0.08 0.10 0.12 0.14 0.16 0.17 0.18 0.18 0.17 0.18 0.16 0.15 0.14 0.12 0.11 0.10 0.10 0.11 0.12 0.13 0.13 0.14 0.13 0.11 0.10 0.09 0.07 0.06 0.04 0.04 0.04 0.02 0.02
0.02 0.01 0.01 0.02 0.02 0.03 0.04 0.04 0.04 0.04 0.05 0.06 0.08 0.10 0.12 0.12 0.16 0.19 0.18 0.17 0.16 0.15 0.16 0.16 0.15 0.14 0.14 0.16 0.16 0.16 0.17 0.18 0.15 0.12 0.09 0.08 0.07 0.06 0.05 0.04 0.03 0.03 0.02
0.02 0.02 0.02 0.02 0.02 0.03 0.04 0.05 0.04 0.04 0.04 0.05 0.05 0.06 0.09 0.10 0.13 0.15 0.15 0.16 0.15 0.13 0.13 0.15 0.16 0.15 0.13 0.13 0.15 0.13 0.13 0.13 0.12 0.10 0.07 0.06 0.05 0.06 0.06 0.04 0.03 0.02 0.02
MSLP
1013.66 1013.85 1014.07 1014.30 1014.55 1014.83 1015.11 1015.41 1015.70 1015.98 1016.21 1016.41 1016.56 1016.68 1016.78 1016.87 1016.99 1017.14 1017.33 1017.56 1017.79 1018.02 1018.20 1018.34 1018.41 1018.42 1018.39 1018.33 1018.28 1018.25 1018.26 1018.30 1018.38 1018.49 1018.60 1018.72 1018.83 1018.92 1018.98 1019.03 1019.04 1019.03 1018.99
1013.40 1013.58 1013.78 1014.02 1014.28 1014.56 1014.86 1015.17 1015.46 1015.73 1015.96 1016.13 1016.26 1016.34 1016.41 1016.47 1016.56 1016.69 1016.87 1017.09 1017.32 1017.56 1017.77 1017.93 1018.04 1018.08 1018.07 1018.04 1018.00 1017.96 1017.96 1017.98 1018.05 1018.14 1018.25 1018.37 1018.50 1018.62 1018.73 1018.82 1018.88 1018.92 1018.92
1013.22 1013.39 1013.59 1013.83 1014.10 1014.40 1014.72 1015.03 1015.33 1015.59 1015.79 1015.93 1016.02 1016.05 1016.06 1016.07 1016.11 1016.19 1016.33 1016.51 1016.73 1016.97 1017.20 1017.39 1017.53 1017.62 1017.66 1017.66 1017.64 1017.63 1017.62 1017.64 1017.68 1017.75 1017.85 1017.98 1018.12 1018.27 1018.42 1018.56 1018.68 1018.78 1018.83
1013.08 1013.25 1013.46 1013.71 1014.00 1014.31 1014.64 1014.96 1015.25 1015.49 1015.67 1015.78 1015.81 1015.80 1015.74 1015.69 1015.65 1015.66 1015.74 1015.87 1016.05 1016.27 1016.50 1016.72 1016.90 1017.05 1017.14 1017.20 1017.23 1017.24 1017.24 1017.26 1017.29 1017.35 1017.43 1017.55 1017.70 1017.88 1018.07 1018.27 1018.45 1018.61 1018.73
1012.91 1013.09 1013.32 1013.59 1013.89 1014.21 1014.55 1014.87 1015.16 1015.38 1015.54 1015.61 1015.61 1015.54 1015.43 1015.30 1015.19 1015.13 1015.13 1015.19 1015.33 1015.51 1015.73 1015.96 1016.19 1016.38 1016.55 1016.67 1016.76 1016.81 1016.84 1016.86 1016.88 1016.93 1017.00 1017.11 1017.27 1017.46 1017.70 1017.95 1018.20 1018.42 1018.60
1012.66 1012.86 1013.10 1013.39 1013.70 1014.03 1014.36 1014.68 1014.96 1015.17 1015.31 1015.36 1015.33 1015.23 1015.08 1014.90 1014.73 1014.60 1014.52 1014.52 1014.59 1014.73 1014.92 1015.16 1015.41 1015.67 1015.89 1016.09 1016.24 1016.34 1016.41 1016.44 1016.47 1016.50 1016.56 1016.66 1016.82 1017.03 1017.30 1017.60 1017.90 1018.19 1018.44
1012.31 1012.52 1012.77 1013.05 1013.36 1013.68 1014.00 1014.31 1014.57 1014.78 1014.91 1014.96 1014.93 1014.82 1014.66 1014.46 1014.25 1014.07 1013.93 1013.86 1013.87 1013.96 1014.13 1014.36 1014.63 1014.93 1015.22 1015.48 1015.70 1015.86 1015.96 1016.02 1016.05 1016.07 1016.11 1016.20 1016.35 1016.57 1016.86 1017.20 1017.56 1017.92 1018.22
1011.90 1012.09 1012.32 1012.58 1012.86 1013.15 1013.44 1013.72 1013.97 1014.17 1014.30 1014.37 1014.36 1014.27 1014.13 1013.94 1013.73 1013.52 1013.35 1013.23 1013.19 1013.24 1013.37 1013.59 1013.88 1014.21 1014.55 1014.88 1015.16 1015.37 1015.52 1015.60 1015.63 1015.64 1015.66 1015.73 1015.87 1016.10 1016.40 1016.77 1017.18 1017.58 1017.95
1011.47 1011.63 1011.80 1012.01 1012.23 1012.46 1012.70 1012.93 1013.15 1013.34 1013.48 1013.57 1013.60 1013.56 1013.46 1013.31 1013.13 1012.93 1012.75 1012.61 1012.53 1012.55 1012.66 1012.87 1013.17 1013.53 1013.92 1014.30 1014.63 1014.90 1015.08 1015.18 1015.21 1015.21 1015.21 1015.26 1015.39 1015.60 1015.92 1016.31 1016.75 1017.20 1017.61
1011.15 1011.22 1011.30 1011.41 1011.54 1011.68 1011.84 1012.01 1012.18 1012.35 1012.49 1012.60 1012.67 1012.69 1012.66 1012.57 1012.44 1012.27 1012.11 1011.97 1011.88 1011.88 1011.98 1012.19 1012.50 1012.89 1013.32 1013.74 1014.13 1014.44 1014.65 1014.77 1014.80 1014.79 1014.77 1014.80 1014.91 1015.12 1015.43 1015.84 1016.31 1016.79 1017.25
1011.01 1010.96 1010.92 1010.90 1010.90 1010.93 1010.99 1011.07 1011.17 1011.29 1011.42 1011.54 1011.64 1011.72 1011.74 1011.72 1011.64 1011.52 1011.39 1011.27 1011.20 1011.20 1011.31 1011.53 1011.86 1012.27 1012.74 1013.21 1013.64 1013.98 1014.22 1014.36 1014.39 1014.37 1014.35 1014.36 1014.45 1014.65 1014.97 1015.40 1015.89 1016.40 1016.90
1011.13 1010.93 1010.75 1010.58 1010.44 1010.33 1010.25 1010.22 1010.23 1010.28 1010.37 1010.48 1010.59 1010.68 1010.75 1010.77 1010.75 1010.68 1010.59 1010.50 1010.45 1010.48 1010.60 1010.84 1011.20 1011.65 1012.15 1012.66 1013.13 1013.51 1013.77 1013.92 1013.97 1013.96 1013.93 1013.94 1014.04 1014.24 1014.57 1015.01 1015.52 1016.07 1016.60
1011.51 1011.16 1010.83 1010.51 1010.21 1009.96 1009.75 1009.60 1009.49 1009.45 1009.46 1009.52 1009.60 1009.68 1009.76 1009.80 1009.81 1009.77 1009.71 1009.65 1009.64 1009.68 1009.84 1010.10 1010.49 1010.97 1011.51 1012.06 1012.56 1012.98 1013.28 1013.45 1013.52 1013.53 1013.52 1013.55 1013.66 1013.89 1014.24 1014.71 1015.25 1015.82 1016.37
1012.12 1011.64 1011.16 1010.71 1010.28 1009.89 1009.55 1009.26 1009.04 1008.88 1008.79 1008.76 1008.77 1008.81 1008.85 1008.87 1008.87 1008.84 1008.80 1008.76 1008.76 1008.83 1009.01 1009.30 1009.72 1010.23 1010.80 1011.38 1011.92 1012.37 1012.70 1012.92 1013.02 1013.07 1013.09 1013.16 1013.32 1013.59 1013.98 1014.48 1015.05 1015.64 1016.21
1012.86 1012.28 1011.70 1011.15 1010.61 1010.12 1009.66 1009.26 1008.91 1008.63 1008.42 1008.28 1008.19 1008.13 1008.10 1008.07 1008.03 1007.97 1007.91 1007.86 1007.87 1007.95 1008.13 1008.44 1008.87 1009.40 1009.99 1010.60 1011.17 1011.65 1012.03 1012.29 1012.45 1012.55 1012.64 1012.78 1012.99 1013.32 1013.76 1014.31 1014.91 1015.52 1016.11
1013.63 1013.00 1012.37 1011.76 1011.16 1010.60 1010.06 1009.56 1009.11 1008.71 1008.37 1008.10 1007.89 1007.72 1007.59 1007.47 1007.35 1007.24 1007.13 1007.05 1007.03 1007.09 1007.26 1007.56 1007.98 1008.51 1009.10 1009.72 1010.31 1010.82 1011.24 1011.56 1011.79 1011.97 1012.15 1012.36 1012.66 1013.06 1013.56 1014.15 1014.79 1015.43 1016.02
1014.31 1013.68 1013.06 1012.45 1011.84 1011.25 1010.67 1010.11 1009.57 1009.08 1008.63 1008.24 1007.90 1007.61 1007.36 1007.14 1006.93 1006.73 1006.55 1006.41 1006.33 1006.34 1006.46 1006.71 1007.09 1007.58 1008.16 1008.76 1009.35 1009.89 1010.36 1010.74 1011.05 1011.32 1011.59 1011.90 1012.29 1012.77 1013.34 1013.98 1014.64 1015.30 1015.88
1014.85 1014.27 1013.69 1013.12 1012.54 1011.96 1011.37 1010.78 1010.20 1009.64 1009.11 1008.62 1008.18 1007.78 1007.43 1007.09 1006.78 1006.49 1006.22 1005.99 1005.82 1005.74 1005.78 1005.94 1006.25 1006.67 1007.19 1007.76 1008.34 1008.89 1009.39 1009.83 1010.22 1010.59 1010.97 1011.38 1011.87 1012.43 1013.07 1013.75 1014.44 1015.09 1015.68
1015.22 1014.70 1014.20 1013.69 1013.17 1012.63 1012.07 1011.48 1010.88 1010.29 1009.71 1009.16 1008.64 1008.17 1007.73 1007.31 1006.91 1006.52 1006.15 1005.81 1005.53 1005.33 1005.25 1005.30 1005.49 1005.82 1006.25 1006.75 1007.30 1007.84 1008.37 1008.87 1009.34 1009.80 1010.28 1010.80 1011.38 1012.03 1012.72 1013.44 1014.14 1014.80 1015.38
1015.42 1014.98 1014.55 1014.12 1013.67 1013.18 1012.66 1012.10 1011.51 1010.91 1010.32 1009.75 1009.20 1008.69 1008.19 1007.71 1007.24 1006.77 1006.30 1005.85 1005.45 1005.12 1004.89 1004.80 1004.84 1005.04 1005.35 1005.77 1006.26 1006.79 1007.33 1007.88 1008.42 1008.97 1009.55 1010.17 1010.84 1011.55 1012.29 1013.04 1013.76 1014.42 1014.99
1015.51 1015.13 1014.77 1014.40 1014.00 1013.57 1013.08 1012.56 1012.00 1011.42 1010.85 1010.29 1009.75 1009.23 1008.72 1008.22 1007.70 1007.16 1006.61 1006.05 1005.52 1005.05 1004.67 1004.41 1004.29 1004.34 1004.52 1004.84 1005.26 1005.75 1006.30 1006.88 1007.48 1008.12 1008.78 1009.49 1010.23 1011.01 1011.80 1012.58 1013.31 1013.97 1014.54
1015.53 1015.19 1014.87 1014.53 1014.17 1013.77 1013.32 1012.83 1012.30 1011.76 1011.22 1010.70 1010.19 1009.70 1009.21 1008.71 1008.17 1007.60 1006.97 1006.33 1005.68 1005.07 1004.53 1004.11 1003.83 1003.71 1003.76 1003.96 1004.30 1004.75 1005.29 1005.89 1006.54 1007.24 1007.98 1008.76 1009.58 1010.41 1011.24 1012.05 1012.80 1013.47 1014.04
1015.53 1015.20 1014.89 1014.57 1014.22 1013.83 1013.39 1012.92 1012.42 1011.91 1011.41 1010.94 1010.48 1010.04 1009.59 1009.11 1008.57 1007.97 1007.30 1006.58 1005.83 1005.09 1004.42 1003.84 1003.40 1003.14 1003.06 1003.15 1003.41 1003.81 1004.32 1004.94 1005.62 1006.37 1007.17 1008.01 1008.88 1009.77 1010.64 1011.48 1012.25 1012.94 1013.53
1015.54 1015.21 1014.88 1014.54 1014.17 1013.77 1013.32 1012.85 1012.37 1011.89 1011.43 1011.00 1010.59 1010.20 1009.79 1009.34 1008.82 1008.21 1007.51 1006.74 1005.91 1005.07 1004.27 1003.57 1003.00 1002.61 1002.41 1002.40 1002.59 1002.94 1003.43 1004.04 1004.74 1005.53 1006.37 1007.25 1008.16 1009.09 1009.99 1010.86 1011.67 1012.38 1013.00
1015.58 1015.22 1014.86 1014.49 1014.09 1013.66 1013.19 1012.70 1012.22 1011.75 1011.31 1010.91 1010.54 1010.18 1009.81 1009.38 1008.88 1008.27 1007.56 1006.74 1005.86 1004.95 1004.07 1003.27 1002.61 1002.12 1001.83 1001.74 1001.86 1002.16 1002.62 1003.22 1003.93 1004.72 1005.59 1006.49 1007.43 1008.38 1009.32 1010.21 1011.05 1011.81 1012.47
1015.62 1015.24 1014.85 1014.45 1014.01 1013.54 1013.04 1012.52 1012.02 1011.54 1011.11 1010.72 1010.36 1010.02 1009.66 1009.26 1008.76 1008.16 1007.43 1006.60 1005.69 1004.74 1003.81 1002.95 1002.23 1001.67 1001.32 1001.18 1001.25 1001.51 1001.94 1002.52 1003.21 1004.00 1004.86 1005.77 1006.71 1007.67 1008.61 1009.53 1010.40 1011.20 1011.91
Thickness
5690 5690 5690 5689 5688 5688 5687 5685 5685 5686 5685 5684 5684 5685 5685 5685 5685 5684 5684 5681 5680 5679 5679 5679 5678 5677 5677 5676 5675 5674 5673 5672 5671 5669 5667 5666 5664 5663 5661 5659 5658 5657 5655
5683 5684 5684 5684 5683 5683 5682 5681 5681 5681 5680 5679 5679 5679 5680 5680 5680 5680 5680 5678 5676 5675 5674 5674 5674 5673 5673 5672 5671 5670 5668 5667 5666 5664 5662 5661 5659 5657 5656 5654 5653 5651 5650
5675 5676 5677 5678 5678 5677 5676 5675 5675 5675 5675 5674 5674 5674 5674 5675 5675 5675 5675 5674 5673 5671 5670 5669 5669 5668 5668 5667 5666 5665 5663 5662 5660 5659 5657 5656 5654 5652 5650 5649 5647 5646 5645
5667 5668 5670 5671 5671 5670 5670 5669 5670 5668 5668 5668 5669 5669 5669 5669 5670 5670 5670 5670 5669 5668 5666 5665 5664 5663 5663 5662 5661 5660 5659 5657 5655 5654 5652 5651 5649 5647 5646 5644 5642 5641 5640
5659 5660 5662 5664 5664 5664 5663 5663 5662 5662 5662 5662 5663 5663 5663 5664 5664 5664 5665 5665 5665 5663 5663 5661 5659 5658 5657 5657 5656 5655 5654 5652 5650 5649 5648 5646 5645 5643 5641 5639 5637 5636 5634
5651 5653 5655 5656 5657 5656 5656 5657 5656 5656 5656 5656 5655 5655 5657 5658 5659 5660 5661 5660 5660 5658 5658 5657 5655 5654 5652 5651 5650 5649 5648 5647 5645 5644 5642 5641 5640 5638 5636 5634 5632 5631 5629
5641 5644 5646 5648 5649 5650 5651 5652 5650 5649 5649 5649 5645 5645 5648 5651 5653 5654 5655 5655 5655 5654 5652 5651 5651 5650 5648 5646 5645 5644 5643 5642 5640 5638 5637 5635 5634 5632 5631 5629 5627 5625 5624
5630 5633 5637 5640 5642 5643 5644 5645 5644 5643 5642 5642 5640 5638 5638 5641 5645 5647 5648 5649 5649 5648 5647 5646 5645 5644 5643 5642 5640 5638 5637 5636 5634 5632 5631 5630 5628 5626 5625 5623 5621 5619 5618
5619 5624 5628 5632 5635 5636 5637 5638 5638 5637 5636 5635 5636 5635 5635 5638 5641 5641 5642 5642 5642 5642 5641 5640 5639 5638 5636 5636 5635 5632 5631 5629 5628 5627 5625 5624 5622 5621 5619 5616 5615 5613 5612
5608 5613 5618 5622 5625 5627 5629 5631 5631 5630 5630 5629 5629 5631 5635 5638 5634 5633 5634 5635 5636 5636 5636 5634 5633 5632 5630 5629 5629 5627 5625 5623 5621 5620 5619 5618 5616 5614 5612 5610 5608 5607 5606
5597 5602 5607 5612 5615 5618 5621 5622 5623 5624 5623 5624 5624 5625 5625 5626 5628 5628 5628 5628 5627 5628 5629 5628 5627 5625 5624 5623 5622 5621 5619 5616 5615 5614 5612 5611 5609 5608 5605 5603 5602 5600 5599
5587 5591 5596 5601 5605 5609 5612 5613 5614 5615 5616 5617 5617 5617 5618 5619 5621 5620 5621 5622 5621 5623 5621 5620 5620 5619 5617 5616 5615 5613 5611 5609 5608 5607 5606 5604 5602 5601 5599 5597 5594 5593 5592
5576 5580 5585 5590 5594 5598 5602 5604 5605 5606 5608 5609 5610 5611 5611 5613 5616 5615 5615 5614 5614 5615 5613 5613 5614 5612 5610 5609 5608 5606 5603 5602 5601 5599 5598 5597 5595 5593 5592 5590 5587 5585 5584
5566 5570 5574 5580 5584 5588 5592 5594 5597 5598 5600 5601 5603 5604 5605 5606 5607 5608 5609 5606 5604 5605 5605 5607 5607 5606 5604 5602 5602 5599 5597 5595 5593 5592 5590 5589 5587 5585 5583 5582 5580 5577 5575
5556 5561 5565 5570 5574 5577 5581 5584 5587 5590 5591 5593 5595 5596 5597 5599 5599 5600 5601 5601 5600 5599 5601 5602 5600 5599 5597 5595 5594 5591 5591 5588 5586 5585 5583 5581 5579 5576 5574 5572 5571 5569 5567
5547 5552 5556 5560 5564 5567 5570 5574 5576 5578 5581 5584 5586 5587 5589 5591 5592 5592 5592 5593 5594 5595 5598 5600 5595 5593 5589 5587 5586 5584 5583 5581 5578 5576 5575 5573 5571 5568 5566 5564 5562 5560 5558
5538 5542 5547 5550 5554 5557 5560 5563 5566 5568 5570 5573 5575 5577 5579 5581 5582 5582 5583 5584 5585 5586 5589 5590 5586 5583 5580 5578 5576 5575 5574 5572 5570 5568 5566 5564 5562 5560 5558 5556 5554 5552 5550
5528 5531 5536 5539 5543 5546 5549 5551 5554 5556 5558 5561 5563 5565 5568 5569 5571 5572 5573 5574 5575 5576 5577 5576 5574 5572 5571 5570 5568 5566 5564 5563 5562 5560 5558 5555 5553 5551 5549 5547 5545 5543 5541
5517 5520 5524 5528 5530 5533 5536 5539 5542 5544 5546 5548 5550 5552 5555 5556 5559 5561 5562 5563 5565 5565 5565 5565 5564 5562 5560 5558 5556 5555 5553 5551 5551 5550 5548 5546 5544 5542 5540 5538 5536 5534 5532
5506 5509 5512 5515 5517 5520 5523 5525 5527 5530 5533 5535 5536 5539 5541 5543 5545 5547 5549 5550 5552 5552 5552 5552 5552 5550 5549 5547 5545 5545 5542 5541 5540 5538 5537 5536 5534 5532 5530 5529 5527 5525 5523
5494 5497 5499 5501 5503 5506 5507 5509 5512 5515 5518 5520 5522 5523 5526 5528 5529 5531 5534 5536 5536 5538 5539 5540 5540 5539 5538 5536 5538 5538 5535 5532 5529 5528 5526 5525 5524 5522 5521 5519 5518 5516 5514
5482 5483 5485 5487 5489 5490 5490 5492 5494 5498 5501 5503 5506 5508 5510 5511 5513 5515 5518 5520 5521 5523 5526 5528 5530 5531 5532 5531 5530 5527 5524 5519 5518 5519 5515 5514 5512 5512 5513 5511 5509 5507 5505
5469 5470 5470 5471 5473 5474 5474 5475 5477 5480 5483 5485 5487 5490 5492 5495 5496 5500 5503 5505 5507 5510 5512 5515 5519 5522 5522 5522 5519 5515 5515 5514 5515 5512 5505 5504 5502 5502 5502 5501 5499 5498 5496
5455 5455 5456 5456 5457 5457 5457 5457 5459 5461 5464 5466 5468 5470 5473 5476 5479 5481 5485 5489 5493 5496 5499 5501 5505 5511 5511 5510 5509 5508 5507 5500 5496 5495 5496 5494 5491 5490 5489 5489 5488 5488 5487
5442 5441 5440 5440 5440 5440 5439 5439 5439 5443 5445 5448 5449 5451 5454 5457 5460 5462 5465 5470 5475 5479 5481 5483 5488 5492 5494 5495 5494 5490 5487 5484 5482 5480 5481 5482 5479 5477 5476 5477 5478 5477 5477
5427 5426 5424 5423 5422 5422 5421 5420 5419 5423 5426 5429 5431 5433 5435 5437 5440 5442 5445 5450 5455 5459 5462 5465 5469 5472 5476 5479 5479 5480 5480 5477 5474 5470 5470 5469 5467 5465 5463 5465 5466 5466 5467